sat.trackr.live / text

‹ back to catalog

STARLINK-32837

NORAD 62812 · 2025-018G

PAYLOAD ACTIVE UNKNOWN

§ Identity

Operator
Country
US
Launch date
2025-01-24
Launch site
AFWTR
Launch vehicle
Mass (kg)
RCS (m²)

Purposes: comms

External: N2YO · Heavens-Above · Gunter

§ Orbital elements

Epoch: 2026-05-25T04:38:36.652128Z

Period
94.11 min
Inclination
53.1604°
Eccentricity
0.0000988
Mean motion
15.30183011 rev/d
Perigee alt
474.6 km
Apogee alt
475.9 km
Semi-major
6,853.4 km
B*
1.9206e-4
RAAN
314.1005°
Arg perigee
90.2258°
Mean anomaly
269.8856°
Rev number
7,489

§ Raw data

STARLINK-328371 62812U 25018G   26145.19347977  .00005330  00000+0  19206-3 0  99912 62812  53.1604 314.1005 0000988  90.2258 269.8856 15.30183011 74890

JSON: /api/v1/satellites/62812 · /tle

For live sub-satellite position, see the globe view (requires WebGL).

§ Visibility from observer

Set your observer location to see the next 7 days of passes ≥ 10°. The values pass through the URL so the page stays shareable.

No JS? Fill the form by hand. The geolocation button needs JavaScript.